This is the latest recevied weather packets stored in our database for station/object KI4HRG. If no packets are shown the sender has not sent any weather packets the latest 10 day(s).
| Time | Temp. | Humidity | Pressure | Rain* | Wind** | Luminosity | Snow |
|---|---|---|---|---|---|---|---|
| 1787488760 | 23.89° C | 87% | 1016.7 hPa | 0 mm | - | 65 W/m² | - |
| 1787488456 | 23.33° C | 88% | 1016.7 hPa | 0 mm | - | 56 W/m² | - |
| 1787488153 | 22.78° C | 92% | 1016.6 hPa | 0 mm | - | 53 W/m² | - |
| 1787487848 | 22.78° C | 91% | 1016.6 hPa | 0 mm | - | 49 W/m² | - |
| 1787487545 | 22.22° C | 93% | 1016.5 hPa | 0 mm | - | 46 W/m² | - |
| 1787487241 | 21.67° C | 96% | 1016.6 hPa | 0 mm | - | 42 W/m² | - |
| 1787486936 | 21.11° C | 97% | 1016.4 hPa | 0 mm | - | 38 W/m² | - |
| 1787486631 | 21.11° C | 97% | 1016.4 hPa | 0 mm | - | 29 W/m² | - |
| 1787486330 | 21.11° C | 97% | 1016.6 hPa | 0 mm | - | 27 W/m² | - |
| 1787486026 | 21.11° C | 97% | 1016.6 hPa | 0 mm | - | 24 W/m² | - |
| 1787485722 | 21.11° C | 97% | 1016.3 hPa | 0 mm | - | 22 W/m² | - |
| 1787485417 | 21.11° C | 97% | 1016.2 hPa | 0 mm | - | 16 W/m² | - |
| 1787485111 | 21.11° C | 97% | 1016.3 hPa | 0 mm | - | 12 W/m² | - |
| 1787484808 | 21.11° C | 97% | 1016.3 hPa | 0 mm | - | 9 W/m² | - |
| 1787484504 | 20.56° C | 98% | 1016.4 hPa | 0 mm | - | 6 W/m² | - |
| 1787484199 | 20.56° C | 98% | 1016.3 hPa | 0 mm | - | 4 W/m² | - |
| 1787483895 | 20.56° C | 99% | 1016.2 hPa | 0 mm | - | 2 W/m² | - |
| 1787483592 | 20.56° C | 99% | 1016.1 hPa | 0 mm | - | 0 W/m² | - |
| 1787483288 | 20.56° C | 99% | 1016 hPa | 0 mm | - | 0 W/m² | - |
| 1787482984 | 20.56° C | 99% | 1015.8 hPa | 0 mm | - | 0 W/m² | - |
| 1787482680 | 20.56° C | 99% | 1015.6 hPa | 0 mm | - | 0 W/m² | - |
| 1787482375 | 20.56° C | 99% | 1015.7 hPa | 0 mm | - | 0 W/m² | - |
| 1787482071 | 20.56° C | 99% | 1015.7 hPa | 0 mm | - | 0 W/m² | - |
| 1787481770 | 20.56° C | 99% | 1015.9 hPa | 0 mm | - | 0 W/m² | - |
| 1787481466 | 20.56° C | 99% | 1015.8 hPa | 0 mm | - | 0 W/m² | - |
* Rain latest hour (hover to see other rain measurements)
** Current wind speed in m/s (hover to see current wind gust speed)